Weather History for KLFK - December, 2011

Change the Weather History Date:

Monday, December 5, 2011

  Actual Average Record
Temperature  
Mean Temperature 47 °F 52 °F  
Max Temperature 52 °F 63 °F 83 °F (1906)
Min Temperature 42 °F 41 °F 22 °F (2009)
Degree Days  
Heating Degree Days 18 13  
Month to date heating degree days 42 64  
Since 1 July heating degree days 339 371  
Cooling Degree Days 0 0  
Month to date cooling degree days 0 4  
Year to date cooling degree days 3420 2587  
Moisture  
Dew Point 47 °F    
Average Humidity 95    
Maximum Humidity 96    
Minimum Humidity 93    
Precipitation  
Precipitation 1.24 in 0.16 in 2.10 in (1944)
Month to date precipitation 1.76 0.78  
Year to date precipitation 29.00 45.29  
Snow  
Snow 0.00 in - - ()
Month to date snowfall 0.0  
Since 1 July snowfall 0.0  
Snow Depth 0.00 in    
Sea Level Pressure  
Sea Level Pressure 30.03 in    
Wind  
Wind Speed 7 mph (NNW)    
Max Wind Speed 15 mph    
Max Gust Speed 22 mph    
Visibility 6 miles    
Events Rain    
T = Trace of Precipitation, MM = Missing Value Source: NWS Daily Summary

Daily Weather History Graph

Daily Weather History Graph

Search for Another Location

Airport or City:

Trip Planner

Search our weather history database for the weather conditions in past years. The results will help you decide how hot, cold, wet, or windy it might be!

Date:

Astronomy

Dec. 05, 2011 Rise Set
Actual Time 7:02 AM CST 5:16 PM CST
Civil Twilight 6:36 AM CST 5:42 PM CST
Nautical Twilight 6:06 AM CST 6:12 PM CST
Astronomical Twilight 5:36 AM CST 6:42 PM CST
Moon 2:03 PM CST (12/5) 2:37 AM CST (12/5)
Length of Visible Light 11h 06m
Length of Day
10h 13m
Waxing Gibbous, 80% of the Moon is Illuminated
Dec 5
Waxing Gibbous
Dec 10
Full
Dec 17
Last Quarter
Dec 24
New
Jan 1
First Quarter

Hourly Weather History & Observations

Time (CST) Temp. Windchill Dew Point Humidity Pressure Visibility Wind Dir Wind Speed Gust Speed Precip Events Conditions
12:53 AM 50.0 °F - 48.0 °F 93% 29.98 in 6.0 mi NNW 6.9 mph 19.6 mph 0.06 in Rain Light Rain
1:53 AM 48.9 °F - 46.9 °F 93% 29.96 in 10.0 mi North 8.1 mph - 0.02 in   Overcast
2:53 AM 48.9 °F - 46.9 °F 93% 29.91 in 10.0 mi NNE 8.1 mph 20.7 mph 0.01 in Rain Light Rain
3:53 AM 48.9 °F - 46.9 °F 93% 29.90 in 5.0 mi ENE 8.1 mph - 0.03 in Rain Light Rain
4:33 AM 48.2 °F - 48.2 °F 100% 29.90 in 4.0 mi East 8.1 mph - 0.22 in Rain Rain
4:37 AM 48.2 °F - - N/A% 29.89 in 1.8 mi ENE 9.2 mph - 0.31 in Rain Heavy Rain
4:44 AM 48.2 °F - - N/A% 29.89 in 2.0 mi NE 5.8 mph - 0.34 in Rain Rain
4:52 AM 48.9 °F - - N/A% 29.88 in 2.5 mi NNE 3.5 mph - 0.44 in Rain Rain
5:12 AM 48.2 °F - - N/A% 29.89 in 1.8 mi North 5.8 mph - 0.22 in Rain Heavy Rain
5:19 AM 48.2 °F - - N/A% 29.89 in 3.0 mi North 3.5 mph - 0.23 in Rain Light Rain
5:32 AM 48.2 °F - - N/A% 29.93 in 8.0 mi West 4.6 mph - N/A   Overcast
5:37 AM 48.2 °F - - N/A% 29.91 in 1.8 mi North 4.6 mph - 0.38 in Rain Heavy Rain
5:53 AM 48.9 °F - - N/A% 29.92 in 7.0 mi NW 4.6 mph - 0.47 in Rain Light Rain
6:13 AM 48.2 °F - - N/A% 29.93 in 4.0 mi NNW 8.1 mph - 0.06 in Rain Rain
6:51 AM 48.2 °F - - N/A% 29.98 in 8.0 mi NNW 10.4 mph 16.1 mph 0.16 in Rain Light Rain
6:53 AM 48.9 °F - - N/A% 29.98 in 7.0 mi NW 9.2 mph 16.1 mph 0.16 in Rain Rain
8:42 AM 46.4 °F 41.9 °F - N/A% 30.03 in 10.0 mi NNW 9.2 mph 18.4 mph 0.00 in   Overcast
8:53 AM 48.0 °F - - N/A% 30.03 in 10.0 mi North 5.8 mph - 0.00 in   Overcast
9:53 AM 48.9 °F - - N/A% 30.05 in 10.0 mi NNW 8.1 mph - N/A   Overcast
10:53 AM 48.9 °F - - N/A% 30.05 in 10.0 mi North 11.5 mph 18.4 mph N/A   Overcast
11:53 AM 50.0 °F - - N/A% 30.05 in 10.0 mi North 9.2 mph - N/A   Overcast
12:12 PM 48.2 °F - - N/A% 30.05 in 4.0 mi North 5.8 mph - 0.00 in Rain Light Rain
12:25 PM 48.2 °F - - N/A% 30.05 in 2.0 mi North 6.9 mph - 0.00 in   Overcast
12:53 PM 48.9 °F - - N/A% 30.04 in 8.0 mi NNW 8.1 mph - 0.00 in   Overcast
1:01 PM 48.2 °F - - N/A% 30.04 in 5.0 mi North 10.4 mph - 0.00 in Rain Light Rain
1:13 PM 48.2 °F - - N/A% 30.03 in 4.0 mi NNW 10.4 mph - 0.00 in   Haze
1:20 PM 48.2 °F - - N/A% 30.04 in 3.0 mi NNW 8.1 mph - 0.00 in Rain Light Rain
1:53 PM 48.0 °F - - N/A% 30.03 in 5.0 mi NNW 6.9 mph - 0.00 in   Haze
2:15 PM 48.2 °F - - N/A% 30.04 in 8.0 mi NNW 6.9 mph - 0.00 in Rain Light Rain
2:31 PM 48.2 °F - - N/A% 30.04 in 10.0 mi North 5.8 mph - 0.00 in   Overcast
2:53 PM 48.0 °F - - N/A% 30.04 in 6.0 mi NNW 8.1 mph - 0.00 in   Haze
3:39 PM 48.2 °F - - N/A% 30.05 in 10.0 mi North 4.6 mph - N/A   Overcast
3:51 PM 48.2 °F - - N/A% 30.05 in 10.0 mi Variable 4.6 mph - N/A   Overcast
3:53 PM 48.0 °F - - N/A% 30.05 in 10.0 mi NNW 5.8 mph - N/A   Overcast
4:20 PM 46.4 °F 42.4 °F - N/A% 30.06 in 10.0 mi NNW 8.1 mph - N/A   Overcast
4:53 PM 46.0 °F 42.5 °F - N/A% 30.08 in 5.0 mi NNW 6.9 mph - N/A   Haze
5:20 PM 46.4 °F 42.9 °F - N/A% 30.09 in 7.0 mi Variable 6.9 mph - N/A   Overcast
5:53 PM 46.0 °F 42.5 °F - N/A% 30.10 in 3.0 mi NNW 6.9 mph - 0.01 in   Overcast
6:02 PM 44.6 °F 41.4 °F - N/A% 30.11 in 3.0 mi NNW 5.8 mph - N/A   Overcast
6:53 PM 45.0 °F 41.2 °F - N/A% 30.12 in 4.0 mi North 6.9 mph - N/A   Haze
7:53 PM 46.0 °F 43.1 °F - N/A% 30.14 in 10.0 mi NNW 5.8 mph - N/A   Overcast
8:11 PM 46.4 °F 43.5 °F - N/A% 30.15 in 10.0 mi NNW 5.8 mph - N/A   Overcast
8:53 PM 45.0 °F 42.6 °F - N/A% 30.16 in 10.0 mi NNW 4.6 mph - N/A   Overcast
9:06 PM 46.4 °F 44.3 °F - N/A% 30.16 in 6.0 mi NNW 4.6 mph - N/A   Haze
9:53 PM 45.0 °F 41.8 °F - N/A% 30.17 in 8.0 mi NNW 5.8 mph - 0.00 in   Overcast
10:53 PM 44.1 °F 40.1 °F - N/A% 30.18 in 5.0 mi NNW 6.9 mph - 0.01 in Rain Light Rain
11:06 PM 42.8 °F 36.2 °F - N/A% 30.18 in 6.0 mi NNW 12.7 mph 16.1 mph 0.00 in Rain Light Rain
11:53 PM 42.1 °F 37.1 °F - N/A% 30.19 in 4.0 mi NW 8.1 mph - 0.00 in Rain Light Rain